Time,TemperatureF,DewpointF,PressureIn,WindDirection,WindDirectionDegrees,WindSpeedMPH,WindSpeedGustMPH,Humidity,HourlyPrecipIn,Conditions,Clouds,dailyrainin,SoftwareType,DateUTC
2013-01-04 00:21:00,14.6,9.0,30.00,WSW,238,11.0,14.0,78,0.00,,,0.00,weatherlink.com 1.10,2013-01-04 05:21:00,
2013-01-04 00:36:00,15.2,10.0,29.99,South,186,12.0,17.0,79,0.00,,,0.00,weatherlink.com 1.10,2013-01-04 05:36:00,
2013-01-04 00:51:00,15.7,10.0,30.00,SW,228,9.0,15.0,78,0.00,,,0.00,weatherlink.com 1.10,2013-01-04 05:51:00,
2013-01-04 01:06:00,15.7,10.0,29.99,SSW,213,5.0,15.0,78,0.00,,,0.00,weatherlink.com 1.10,2013-01-04 06:06:00,
2013-01-04 01:21:00,16.3,12.0,29.99,WSW,248,17.0,22.0,83,0.00,,,0.00,weatherlink.com 1.10,2013-01-04 06:21:00,
2013-01-04 01:36:00,16.5,13.0,29.98,WSW,244,10.0,22.0,85,0.00,,,0.00,weatherlink.com 1.10,2013-01-04 06:36:00,
2013-01-04 01:51:00,16.7,13.0,29.99,WSW,252,13.0,25.0,84,0.00,,,0.00,weatherlink.com 1.10,2013-01-04 06:51:00,
2013-01-04 02:06:00,17.4,13.0,29.99,West,264,17.0,21.0,84,0.00,,,0.00,weatherlink.com 1.10,2013-01-04 07:06:00,
2013-01-04 02:21:00,17.5,14.0,29.99,WSW,256,13.0,21.0,85,0.00,,,0.00,weatherlink.com 1.10,2013-01-04 07:21:00,
2013-01-04 02:36:00,16.8,13.0,29.99,West,267,17.0,20.0,85,0.00,,,0.00,weatherlink.com 1.10,2013-01-04 07:36:00,
2013-01-04 02:51:00,16.5,13.0,29.98,WSW,254,14.0,20.0,86,0.00,,,0.00,weatherlink.com 1.10,2013-01-04 07:51:00,
2013-01-04 03:06:00,16.8,14.0,29.98,WSW,238,11.0,22.0,87,0.00,,,0.00,weatherlink.com 1.10,2013-01-04 08:06:00,
2013-01-04 03:21:00,17.1,14.0,29.97,West,259,13.0,21.0,88,0.00,,,0.00,weatherlink.com 1.10,2013-01-04 08:21:00,
2013-01-04 03:36:00,17.5,15.0,29.97,West,273,11.0,24.0,89,0.00,,,0.00,weatherlink.com 1.10,2013-01-04 08:36:00,
2013-01-04 03:51:00,19.2,17.0,29.97,West,277,10.0,20.0,89,0.00,,,0.00,weatherlink.com 1.10,2013-01-04 08:51:00,
2013-01-04 04:07:00,19.4,16.0,29.97,SW,230,12.0,24.0,88,0.00,,,0.00,weatherlink.com 1.10,2013-01-04 09:07:00,
2013-01-04 04:22:00,19.5,17.0,29.97,SW,221,8.0,21.0,88,0.00,,,0.00,weatherlink.com 1.10,2013-01-04 09:22:00,
2013-01-04 04:37:00,20.1,17.0,29.96,SW,235,14.0,22.0,88,0.00,,,0.00,weatherlink.com 1.10,2013-01-04 09:37:00,
2013-01-04 04:52:00,19.8,17.0,29.96,WSW,243,10.0,14.0,89,0.00,,,0.00,weatherlink.com 1.10,2013-01-04 09:52:00,
2013-01-04 05:07:00,20.2,18.0,29.96,WSW,242,5.0,14.0,89,0.00,,,0.00,weatherlink.com 1.10,2013-01-04 10:07:00,
2013-01-04 05:22:00,20.2,18.0,29.96,WSW,238,9.0,14.0,89,0.00,,,0.00,weatherlink.com 1.10,2013-01-04 10:22:00,
2013-01-04 05:37:00,20.4,18.0,29.96,SSW,192,9.0,20.0,89,0.00,,,0.00,weatherlink.com 1.10,2013-01-04 10:37:00,
2013-01-04 05:52:00,20.9,18.0,29.96,SSW,206,4.0,18.0,89,0.00,,,0.00,weatherlink.com 1.10,2013-01-04 10:52:00,
2013-01-04 06:07:00,21.7,19.0,29.96,WSW,243,7.0,19.0,88,0.00,,,0.00,weatherlink.com 1.10,2013-01-04 11:07:00,
2013-01-04 06:22:00,21.7,19.0,29.97,SW,236,8.0,19.0,89,0.00,,,0.00,weatherlink.com 1.10,2013-01-04 11:22:00,
2013-01-04 06:38:00,21.6,19.0,29.97,WSW,241,10.0,22.0,89,0.00,,,0.00,weatherlink.com 1.10,2013-01-04 11:38:00,
2013-01-04 06:52:00,20.8,18.0,29.97,SW,222,5.0,16.0,90,0.00,,,0.00,weatherlink.com 1.10,2013-01-04 11:52:00,
2013-01-04 07:07:00,21.1,19.0,29.96,WSW,251,11.0,19.0,91,0.00,,,0.00,weatherlink.com 1.10,2013-01-04 12:07:00,
2013-01-04 07:52:00,23.1,21.0,29.95,WSW,250,12.0,24.0,90,0.00,,,0.00,weatherlink.com 1.10,2013-01-04 12:52:00,
2013-01-04 08:07:00,23.4,21.0,29.93,SW,231,13.0,23.0,89,0.00,,,0.00,weatherlink.com 1.10,2013-01-04 13:07:00,
2013-01-04 08:22:00,23.6,21.0,29.93,WSW,252,15.0,24.0,89,0.00,,,0.00,weatherlink.com 1.10,2013-01-04 13:22:00,
2013-01-04 08:37:00,24.0,21.0,29.93,WSW,244,16.0,23.0,89,0.00,,,0.00,weatherlink.com 1.10,2013-01-04 13:37:00,
2013-01-04 08:52:00,24.2,21.0,29.92,West,265,9.0,24.0,88,0.00,,,0.00,weatherlink.com 1.10,2013-01-04 13:52:00,
2013-01-04 09:07:00,25.0,22.0,29.93,WSW,251,17.0,29.0,88,0.00,,,0.00,weatherlink.com 1.10,2013-01-04 14:07:00,
2013-01-04 09:22:00,25.3,22.0,29.92,SW,235,14.0,27.0,87,0.00,,,0.00,weatherlink.com 1.10,2013-01-04 14:22:00,
2013-01-04 09:37:00,25.1,22.0,29.93,WNW,283,11.0,25.0,87,0.00,,,0.00,weatherlink.com 1.10,2013-01-04 14:37:00,
2013-01-04 09:52:00,25.3,22.0,29.92,SW,216,12.0,25.0,87,0.00,,,0.00,weatherlink.com 1.10,2013-01-04 14:52:00,
2013-01-04 10:07:00,25.7,22.0,29.91,SW,227,10.0,28.0,87,0.00,,,0.00,weatherlink.com 1.10,2013-01-04 15:07:00,
2013-01-04 10:22:00,26.2,22.0,29.91,SW,234,12.0,29.0,85,0.00,,,0.00,weatherlink.com 1.10,2013-01-04 15:22:00,
2013-01-04 10:37:00,26.6,22.0,29.89,SW,229,13.0,31.0,84,0.00,,,0.00,weatherlink.com 1.10,2013-01-04 15:37:00,
2013-01-04 10:52:00,27.2,22.0,29.88,SW,236,6.0,31.0,82,0.00,,,0.00,weatherlink.com 1.10,2013-01-04 15:52:00,
2013-01-04 11:07:00,27.9,23.0,29.88,North,5,12.0,31.0,81,0.00,,,0.00,weatherlink.com 1.10,2013-01-04 16:07:00,
2013-01-04 11:22:00,28.3,22.0,29.86,SSW,205,10.0,27.0,78,0.00,,,0.00,weatherlink.com 1.10,2013-01-04 16:22:00,
2013-01-04 11:37:00,28.1,22.0,29.84,WSW,247,12.0,29.0,77,0.00,,,0.00,weatherlink.com 1.10,2013-01-04 16:37:00,
2013-01-04 11:52:00,28.6,22.0,29.84,WSW,239,24.0,26.0,75,0.00,,,0.00,weatherlink.com 1.10,2013-01-04 16:52:00,
2013-01-04 12:07:00,29.4,21.0,29.82,SW,214,16.0,24.0,72,0.00,,,0.00,weatherlink.com 1.10,2013-01-04 17:07:00,
2013-01-04 12:23:00,29.7,21.0,29.82,SW,233,6.0,25.0,71,0.00,,,0.00,weatherlink.com 1.10,2013-01-04 17:23:00,
2013-01-04 12:38:00,29.9,21.0,29.81,West,263,11.0,23.0,70,0.00,,,0.00,weatherlink.com 1.10,2013-01-04 17:38:00,
2013-01-04 12:53:00,30.6,21.0,29.81,SW,217,11.0,26.0,68,0.00,,,0.00,weatherlink.com 1.10,2013-01-04 17:53:00,
2013-01-04 13:08:00,30.9,21.0,29.81,SW,227,6.0,22.0,68,0.00,,,0.00,weatherlink.com 1.10,2013-01-04 18:08:00,
2013-01-04 13:23:00,30.8,21.0,29.82,WSW,244,14.0,18.0,67,0.00,,,0.00,weatherlink.com 1.10,2013-01-04 18:23:00,
2013-01-04 13:38:00,30.9,21.0,29.82,SW,236,7.0,20.0,67,0.00,,,0.00,weatherlink.com 1.10,2013-01-04 18:38:00,
2013-01-04 13:53:00,31.1,21.0,29.82,SW,235,11.0,25.0,66,0.00,,,0.00,weatherlink.com 1.10,2013-01-04 18:53:00,
2013-01-04 14:08:00,30.9,21.0,29.81,SW,215,8.0,31.0,68,0.00,,,0.00,weatherlink.com 1.10,2013-01-04 19:08:00,
2013-01-04 14:23:00,30.8,22.0,29.81,WSW,247,22.0,40.0,69,0.00,,,0.00,weatherlink.com 1.10,2013-01-04 19:23:00,
2013-01-04 14:38:00,30.7,21.0,29.82,SW,231,19.0,30.0,68,0.00,,,0.00,weatherlink.com 1.10,2013-01-04 19:38:00,
2013-01-04 14:53:00,30.7,22.0,29.81,SW,228,20.0,31.0,70,0.00,,,0.00,weatherlink.com 1.10,2013-01-04 19:53:00,
2013-01-04 15:08:00,30.9,22.0,29.82,WSW,238,11.0,32.0,69,0.00,,,0.00,weatherlink.com 1.10,2013-01-04 20:08:00,
2013-01-04 15:23:00,31.1,22.0,29.82,WSW,237,8.0,28.0,70,0.00,,,0.00,weatherlink.com 1.10,2013-01-04 20:23:00,
2013-01-04 15:38:00,31.0,23.0,29.81,SSW,211,13.0,38.0,71,0.00,,,0.00,weatherlink.com 1.10,2013-01-04 20:38:00,
2013-01-04 15:53:00,30.8,23.0,29.81,SW,230,13.0,27.0,72,0.00,,,0.00,weatherlink.com 1.10,2013-01-04 20:53:00,
2013-01-04 16:08:00,30.7,23.0,29.82,West,275,8.0,25.0,72,0.00,,,0.00,weatherlink.com 1.10,2013-01-04 21:08:00,
2013-01-04 16:23:00,30.6,23.0,29.82,SW,231,4.0,17.0,72,0.00,,,0.00,weatherlink.com 1.10,2013-01-04 21:23:00,
2013-01-04 16:38:00,30.6,23.0,29.82,SW,233,7.0,25.0,72,0.00,,,0.00,weatherlink.com 1.10,2013-01-04 21:38:00,
2013-01-04 16:53:00,30.4,23.0,29.82,West,271,6.0,22.0,73,0.00,,,0.00,weatherlink.com 1.10,2013-01-04 21:53:00,
2013-01-04 17:08:00,30.3,23.0,29.81,NW,325,5.0,21.0,74,0.00,,,0.00,weatherlink.com 1.10,2013-01-04 22:08:00,
2013-01-04 17:23:00,30.5,23.0,29.82,WSW,244,14.0,23.0,74,0.00,,,0.00,weatherlink.com 1.10,2013-01-04 22:23:00,
2013-01-04 17:38:00,30.5,23.0,29.82,WSW,246,11.0,21.0,74,0.00,,,0.00,weatherlink.com 1.10,2013-01-04 22:38:00,
2013-01-04 17:53:00,30.3,23.0,29.82,SW,230,10.0,22.0,74,0.00,,,0.00,weatherlink.com 1.10,2013-01-04 22:53:00,
2013-01-04 18:08:00,30.5,23.0,29.82,WSW,239,5.0,23.0,74,0.00,,,0.00,weatherlink.com 1.10,2013-01-04 23:08:00,
2013-01-04 18:23:00,30.6,23.0,29.82,SW,230,7.0,21.0,74,0.00,,,0.00,weatherlink.com 1.10,2013-01-04 23:23:00,
2013-01-04 18:38:00,30.6,23.0,29.82,SW,222,16.0,20.0,74,0.00,,,0.00,weatherlink.com 1.10,2013-01-04 23:38:00,
2013-01-04 18:53:00,30.5,23.0,29.82,WSW,237,9.0,19.0,75,0.00,,,0.00,weatherlink.com 1.10,2013-01-04 23:53:00,
2013-01-04 19:08:00,30.6,23.0,29.82,SW,214,4.0,22.0,74,0.00,,,0.00,weatherlink.com 1.10,2013-01-05 00:08:00,
2013-01-04 19:23:00,30.6,24.0,29.82,SW,230,10.0,20.0,75,0.00,,,0.00,weatherlink.com 1.10,2013-01-05 00:23:00,
2013-01-04 19:38:00,30.5,23.0,29.82,SW,229,13.0,24.0,75,0.00,,,0.00,weatherlink.com 1.10,2013-01-05 00:38:00,
2013-01-04 19:53:00,30.4,24.0,29.82,WSW,237,9.0,24.0,76,0.00,,,0.00,weatherlink.com 1.10,2013-01-05 00:53:00,
2013-01-04 20:08:00,30.4,23.0,29.81,SW,228,10.0,28.0,75,0.00,,,0.00,weatherlink.com 1.10,2013-01-05 01:08:00,
2013-01-04 20:23:00,29.3,22.0,29.81,WSW,257,24.0,29.0,75,0.00,,,0.00,weatherlink.com 1.10,2013-01-05 01:23:00,
2013-01-04 20:38:00,30.4,24.0,29.81,WSW,245,10.0,28.0,76,0.00,,,0.00,weatherlink.com 1.10,2013-01-05 01:38:00,
2013-01-04 20:53:00,30.5,24.0,29.81,SSE,153,11.0,24.0,76,0.00,,,0.00,weatherlink.com 1.10,2013-01-05 01:53:00,
2013-01-04 21:08:00,30.5,24.0,29.81,WSW,247,11.0,21.0,76,0.00,,,0.00,weatherlink.com 1.10,2013-01-05 02:08:00,
2013-01-04 21:23:00,30.5,24.0,29.81,WSW,247,8.0,24.0,76,0.00,,,0.00,weatherlink.com 1.10,2013-01-05 02:23:00,
2013-01-04 21:38:00,30.6,24.0,29.82,West,279,16.0,23.0,76,0.00,,,0.00,weatherlink.com 1.10,2013-01-05 02:38:00,
2013-01-04 21:53:00,30.6,24.0,29.82,WSW,240,12.0,22.0,76,0.00,,,0.00,weatherlink.com 1.10,2013-01-05 02:53:00,
2013-01-04 22:08:00,30.7,24.0,29.81,WSW,257,10.0,27.0,76,0.00,,,0.00,weatherlink.com 1.10,2013-01-05 03:08:00,
2013-01-04 22:23:00,30.5,24.0,29.81,WSW,248,21.0,27.0,76,0.00,,,0.00,weatherlink.com 1.10,2013-01-05 03:23:00,
2013-01-04 22:38:00,30.5,24.0,29.81,SW,236,11.0,28.0,76,0.00,,,0.00,weatherlink.com 1.10,2013-01-05 03:38:00,
2013-01-04 22:53:00,30.4,24.0,29.80,West,277,15.0,30.0,76,0.00,,,0.00,weatherlink.com 1.10,2013-01-05 03:53:00,
2013-01-04 23:08:00,30.2,24.0,29.81,WSW,243,19.0,29.0,77,0.00,,,0.00,weatherlink.com 1.10,2013-01-05 04:08:00,
2013-01-04 23:23:00,30.0,24.0,29.80,SSW,209,9.0,23.0,78,0.00,,,0.00,weatherlink.com 1.10,2013-01-05 04:23:00,
2013-01-04 23:38:00,29.6,24.0,29.81,WSW,242,8.0,28.0,80,0.00,,,0.00,weatherlink.com 1.10,2013-01-05 04:38:00,
2013-01-04 23:53:00,29.5,24.0,29.81,WSW,239,20.0,28.0,81,0.00,,,0.00,weatherlink.com 1.10,2013-01-05 04:53:00,